SCP
0 0 0 0 0 0 0 0 0 0 0 0 0 0 0 0 0 0 0 0 0 0 0 0 0 0 0 0 0 0 0 0 0 0 0 0 0 0 0 0 0 0 0
0 0 0 0 0 0 0 0 0 0 0 0 0 0 0 0 0 0 0 0 0 0 0 0 0 0 0 0 0 0 0 0 0 0 0 0 0 0 0 0 0 0 0
0 0 0 0 0 0 0 0 0 0 0 0 0 0 0 0 0 0 0 0 0 0 0 0 0 0 0 0 0 0 0 0 0 0 0 0 0 0 0 0 0 0 0
0 0 0 0 0 0 0 0 0 0 0 0 0 0 0 0 0 0 0 0 0 0 0 0 0 0 0 0 0 0 0 0 0 0 0 0 0 0 0 0 0 0 0
0 0 0 0 0 0 0 0 0 0 0 0 0 0 0 0 0 0 0 0 0 0 0 0 0 0 0 0 0 0 0 0 0 0 0 0 0 0 0 0 0 0 0
0 0 0 0 0 0 0 0 0 0 0 0 0 0 0 0 0 0 0 0 0 0 0 0 0 0 0 0 0 0 0 0 0 0 0 0 0 0 0 0 0 0 0
0 0 0 0 0 0 0 0 0 0 0 0 0 0 0 0 0 0 0 0 0 -0 -0 0 0 0 0 0 0 0 0 0 0 0 0 0 0 0 0 0 0 0 0
0 0 0 0 0 0 0 0 0 0 0 0 0 0 0 0 0 0 0 0 -0 -0 -0 -0 -0 0 0 0 0 0 0 0 0 0 0 0 0 0 0 0 0 0 0
0 0 0 0 0 0 0 0 0 0 0 0 0 0 0 0 0 0 0 0 -0 -0 -0 -0 -0 0 0 0 0 0 0 0 0 0 0 0 0 0 0 0 0 0 0
0 0 0 0 0 0 0 0 0 0 0 0 0 0 0 0 0 0 0 0 0 -0 -0 -0 -0 -0 -0 0 0 0 0 0 0 0 0 0 0 0 0 0 0 0 0
0 0 0 0 0 0 0 0 0 0 0 0 0 0 0 0 0 0 0 0 0 0 -0 0 0 0 -0 -0 0 0 0 0 0 0 0 0 0 0 0 0 0 0 0
0 0 0 0 0 0 0 0 0 0 0 0 0 0 0 0 0 0 0 0 0 0 0 0 0 0 -0 -0 0 0 0 0 0 0 0 0 0 0 0 0 0 0 0
0 0 0 0 0 0 0 0 0 0 0 0 0 0 0 0 0 0 0 0 0 0 0 0 0 0 0 0 0 0 0 0 0 0 0 0 0 0 0 0 0 0 0
0 0 0 0 0 0 0 0 0 0 0 0 0 0 0 0 0 0 0 0 0 0 0 0 0 0 0 0 0 0 0 0 0 0 0 0 0 0 0 0 0 0 0
0 0 0 0 0 0 0 0 0 0 0 0 0 0 0 0 0 0 0 0 0 0 0 0 0 0 0 0 0 0 0 0 0 0 0 0 0 0 0 0 0 0 0
0 0 0 0 0 0 0 0 0 0 0 0 0 0 0 0 0 0 0 0 0 0 0 0 0 0 0 0 0 0 0 0 0 0 0 0 0 0 0 0 0 0 0
0 0 0 0 0 0 0 0 0 0 0 0 0 0 0 0 0 0 0 0 0 0 0 0 0 0 0 0 0 0 0 0 0 0 0 0 0 0 0 0 0 0 0
0 0 0 0 0 -0 -0 -0 0 0 0 0 0 0 0 0 0 0 0 0 0 0 0 0 0 0 0 0 0 0 0 0 0 0 0 0 0 0 0 0 0 0 0
0 0 0 0 0 -0 -0 -0 0 0 0 0 0 0 0 0 0 0 0 0 0 0 0 0 0 0 0 0 0 0 0 0 0 0 0 0 0 0 0 0 0 0 0
0 0 0 0 0 -0 -0 0 0 0 0 0 0 0 0 0 0 0 0 0 0 0 0 0 0 0 0 0 0 0 0 0 0 0 0 0 0 0 0 0 0 0 0
0 0 0 0 -0 -0 -0 0 0 0 0 0 0 0 0 0 0 0 0 0 0 0 0 0 0 0 0 0 0 0 0 0 0 0 0 0 0 0 0 0 0 0 0
0 0 0 0 0 -0 0 0 0 0 0 0 0 0 0 0 0 0 0 0 0 0 0 0 0 0 0 0 0 0 0 0 0 0 0 0 0 0 0 0 0 0 0
0 0 0 0 0 0 0 0 0 0 0 0 0 0 0 0 0 0 0 0 0 0 0 0 0 0 0 0 0 0 0 0 0 0 0 0 0 0 0 0 0 0 0
0 0 0 0 0 0 0 0 0 0 0 0 0 0 0 0 0 0 0 0 0 0 0 0 0 0 0 0 0 0 0 0 0 0 0 0 0 0 0 0 0 0 0
0 0 0 0 0 0 0 0 0 0 0 0 0 0 0 0 0 0 0 0 0 0 0 0 0 0 0 0 0 0 0 0 0 0 0 0 0 0 0 0 0 0 0
0 0 0 0 0 0 0 0 0 0 0 0 0 0 0 0 0 0 0 0 0 0 0 0 0 0 0 0 0 0 0 0 0 0 0 0 0 0 0 0 0 0 0
Wind_Speed
3 3 2 2 2 2 2 1 1 2 1 2 2 2 2 2 3 4 3 7 7 6 5 5 5 4 5 6 6 5 4 4 4 4 4 4 4 4 4 5 5 6 6
2 2 2 2 2 2 1 1 1 2 2 1 1 1 2 2 3 4 4 4 6 6 5 5 5 5 4 5 6 6 5 5 5 4 4 4 4 4 4 5 5 6 6
3 2 2 2 2 2 2 1 1 1 2 2 1 2 2 2 2 3 4 3 3 5 5 4 4 5 5 5 5 5 6 6 5 5 5 4 4 5 5 6 6 6 6
3 2 2 2 2 2 2 2 1 1 1 1 1 1 1 1 1 3 3 3 2 2 3 5 5 5 4 4 5 5 5 5 5 5 5 5 5 5 5 6 6 6 6
2 3 2 2 2 2 2 2 2 2 2 2 1 1 1 1 1 2 3 3 2 3 2 3 4 4 4 4 4 4 4 4 5 5 5 5 5 6 6 6 7 7 6
2 2 2 2 2 2 2 2 3 2 2 2 2 1 1 1 1 2 2 2 2 3 2 2 2 2 4 4 4 4 3 4 4 4 4 4 5 5 5 6 7 7 7
2 2 2 2 1 2 2 3 2 3 2 2 2 1 1 0 1 1 1 2 2 2 2 2 2 1 1 3 4 4 3 3 3 4 4 5 5 5 5 6 6 7 7
2 2 2 2 1 1 2 2 3 2 2 2 2 2 1 1 1 1 1 2 2 2 2 2 2 1 1 1 2 4 4 4 3 3 4 4 4 5 6 6 6 7 7
2 2 2 2 1 1 2 2 3 3 3 2 2 2 2 2 1 1 2 2 2 2 2 2 2 1 1 1 1 1 3 3 3 3 3 4 4 5 6 6 6 7 7
2 2 2 2 2 2 2 1 2 2 3 3 1 1 1 2 2 1 1 2 2 2 2 1 2 2 2 1 1 1 1 2 3 3 4 4 5 5 6 6 7 7 7
2 2 2 2 2 2 2 1 2 1 1 2 2 1 1 0 1 3 2 2 1 2 2 2 2 2 2 2 1 1 1 1 3 4 5 6 6 6 6 7 7 8 8
2 2 2 2 2 1 2 2 2 2 1 1 1 1 1 1 1 1 2 2 2 2 2 2 2 2 2 2 2 2 1 1 3 4 5 6 6 7 7 7 8 8 8
2 3 2 2 1 1 2 1 1 2 2 2 2 1 1 1 1 1 1 1 1 1 2 2 2 2 2 2 2 2 2 2 4 5 6 7 7 7 8 8 9 9 9
3 4 3 2 2 2 2 1 1 2 2 2 2 1 1 0 1 1 2 2 0 1 1 3 1 2 2 2 2 3 2 4 5 6 7 7 7 7 7 8 9 9 9
3 4 4 3 3 2 2 2 1 2 2 2 2 2 1 1 1 1 1 2 3 2 3 2 1 1 1 2 3 2 2 4 5 6 7 7 7 7 8 8 9 9 9
4 5 5 4 3 3 2 2 1 1 2 1 1 2 2 1 1 1 1 1 1 2 3 2 2 1 1 1 2 2 2 4 5 6 7 7 7 8 8 8 8 9 9
4 5 5 5 4 4 3 2 2 2 2 2 1 3 3 2 2 1 1 1 1 1 3 2 1 1 1 1 2 2 2 2 3 6 7 7 8 8 8 9 9 9 10
4 4 4 4 4 4 4 4 3 3 3 3 3 3 3 2 2 2 2 2 2 2 2 3 2 1 2 2 2 2 2 2 2 6 7 8 8 9 9 9 9 9 10
4 4 4 5 4 4 4 4 4 3 3 3 3 3 4 4 3 3 3 3 2 2 2 2 3 2 2 2 2 2 3 2 3 4 6 7 7 8 9 9 9 9 10
4 4 4 4 4 4 4 4 4 3 3 2 2 3 4 4 4 4 3 4 3 2 2 2 3 2 2 2 2 2 3 2 3 3 4 5 7 8 9 9 10 9 10
4 4 4 3 4 4 4 4 4 4 3 3 2 3 4 5 5 4 3 4 3 3 2 3 3 3 3 2 3 2 3 2 3 2 2 3 3 3 4 7 8 8 10
2 3 3 3 3 3 4 5 4 3 3 3 3 3 3 4 5 6 6 6 5 5 4 4 4 4 5 4 3 2 2 2 3 2 1 4 2 3 3 3 7 10 10
2 2 2 2 3 3 4 5 5 3 3 4 4 3 3 3 5 4 5 6 6 8 8 6 5 6 5 4 3 3 3 3 4 3 2 5 3 4 4 5 9 10 10
2 2 2 2 2 3 4 4 5 4 3 4 4 4 4 4 4 5 5 4 4 5 6 5 6 6 5 4 4 4 4 3 3 3 2 4 3 4 4 3 7 9 10
2 2 2 2 2 3 5 5 4 3 3 4 4 4 4 4 6 6 5 4 4 4 5 6 7 7 7 7 5 2 2 3 4 4 2 2 3 3 4 4 5 8 9
2 2 2 3 3 3 5 6 5 2 3 3 3 3 5 5 6 6 5 4 5 5 3 3 4 5 5 6 8 5 5 4 4 4 2 2 2 2 4 3 2 3 5
Wind_Direction
143 142 144 146 150 138 148 161 159 150 128 117 130 133 125 105 108 106 106 91 84 82 86 86 83 94 98 97 89 79 72 66 57 55 57 53 42 33 24 15 12 9 2
139 144 139 142 136 130 143 159 149 141 122 110 115 118 101 93 95 99 110 103 88 79 78 80 74 73 90 99 92 80 71 65 58 55 52 46 38 25 22 16 8 359 356
138 140 134 136 133 137 142 117 108 98 114 110 94 93 87 86 97 105 111 111 105 87 80 77 72 64 67 83 87 81 71 63 57 53 49 45 39 33 28 22 16 7 3
135 135 133 137 142 141 141 131 120 104 109 107 92 85 95 89 105 112 110 114 116 107 92 84 69 58 54 66 73 74 70 63 58 54 50 44 39 32 22 17 9 2 357
129 128 140 145 148 146 149 153 133 133 125 109 105 95 107 126 139 116 117 115 114 114 113 105 88 67 51 55 65 66 63 58 52 46 40 36 31 26 18 14 9 4 1
113 114 127 134 145 146 152 144 136 128 134 134 112 85 82 145 122 120 131 122 118 115 113 118 116 85 68 54 47 50 53 51 48 40 29 23 18 13 9 5 2 358 358
106 110 118 121 146 157 167 157 141 140 136 119 103 84 357 184 134 136 125 129 127 121 114 112 107 95 85 68 47 35 35 41 42 38 24 17 11 2 359 355 353 353 353
115 117 119 132 124 142 161 159 145 141 146 143 138 136 143 315 289 158 134 140 143 134 128 119 110 112 113 112 56 48 33 21 15 20 14 8 2 356 350 347 348 349 349
119 110 118 129 125 125 165 175 164 156 164 177 154 152 157 191 200 214 178 163 158 149 158 152 147 135 121 111 121 50 31 17 4 354 352 353 344 339 341 337 337 341 344
126 127 132 142 149 134 143 172 152 155 157 175 187 159 159 145 149 171 234 195 177 169 175 168 163 164 156 144 116 84 42 11 349 343 337 333 331 330 331 334 333 333 336
132 132 138 144 153 141 136 157 147 145 161 173 176 182 207 117 142 151 189 204 211 209 190 181 175 179 174 168 165 134 95 342 324 324 324 323 320 319 323 326 329 328 328
148 147 137 132 142 147 143 164 169 163 170 173 174 173 165 171 186 163 173 185 200 218 201 196 189 185 174 169 174 153 168 288 306 310 311 313 314 314 315 317 320 323 321
162 173 160 147 147 146 150 153 170 173 178 182 186 198 189 189 165 149 144 187 195 215 203 218 201 178 175 164 184 192 207 257 288 294 296 301 310 314 316 315 313 316 317
171 171 161 153 156 156 158 153 158 183 175 179 193 179 160 155 124 138 155 155 194 250 219 228 220 180 172 169 196 190 222 257 273 283 290 295 303 306 307 308 309 309 311
159 161 163 161 163 160 161 167 184 193 171 173 179 180 174 175 134 124 134 154 171 214 242 228 213 205 174 163 185 199 218 255 265 278 288 294 295 298 300 302 304 303 303
165 164 166 163 163 160 172 183 193 201 172 171 172 177 187 185 167 160 168 197 187 197 234 244 223 213 198 216 216 217 227 256 265 278 285 288 289 292 294 296 298 298 297
167 171 171 167 167 172 180 190 194 206 190 188 188 186 194 188 181 183 180 189 220 201 233 271 276 246 238 235 251 245 239 235 249 269 278 284 286 287 290 291 292 294 294
172 172 171 170 172 179 186 191 194 212 199 195 201 195 194 185 190 192 189 202 213 211 215 252 269 263 251 234 232 243 250 251 248 265 270 277 284 288 289 288 288 291 293
175 175 174 177 178 187 191 197 195 209 202 202 203 204 202 191 203 201 199 208 215 222 216 232 260 266 266 251 257 270 262 263 266 267 269 276 284 288 290 291 291 293 295
174 183 187 185 185 192 196 199 196 203 197 205 209 211 209 203 202 200 207 211 210 214 218 227 252 261 259 256 232 256 277 270 271 271 277 279 281 285 287 290 290 290 291
176 178 180 183 185 189 198 194 198 194 191 204 218 223 221 211 204 207 212 208 203 209 216 227 242 257 252 241 233 235 256 278 277 255 271 275 274 269 275 282 287 288 292
150 161 175 177 185 206 202 202 198 190 195 205 219 231 231 217 214 225 232 230 218 214 218 223 235 241 249 241 229 227 242 275 281 266 270 280 263 269 271 268 280 288 291
153 167 181 176 189 199 201 203 205 195 202 212 216 223 238 233 214 209 225 235 240 238 230 222 232 241 245 242 225 228 233 243 259 257 280 282 271 268 271 274 279 285 289
166 177 190 191 194 215 211 216 219 212 213 222 222 219 224 228 221 207 206 221 233 237 234 228 232 241 242 237 227 222 224 246 271 262 231 270 277 273 280 273 276 282 290
176 181 188 195 205 224 222 223 222 212 219 230 231 227 222 225 227 215 208 223 243 255 252 242 240 245 248 253 253 241 222 237 273 269 229 241 269 286 280 271 269 274 283
184 184 199 204 211 225 228 229 227 218 228 235 235 233 231 230 230 221 216 219 239 248 247 257 255 259 254 253 253 235 211 220 249 266 229 215 264 299 295 273 266 273 280